Bookmark and Share
Track history (hours):
 

Wolgastern

Last reported at 2014-Apr-25 04:26 UTC. Time now 2014-Apr-25 06:27 UTC.
Position N 51°55' E 003°32'.

Length 162 m; draft 6.6 m.

Type: Ship. MMSI: 255804950.

NotesDate/timePositionNaut miles runAvg speedWind from/ knotsBaromVisibWave heightAir tempDewpointWater temp
2014-Apr-25 04:26N 51°55' E 003°32'0 0.0
2014-Apr-25 03:19N 51°55' E 003°32'0 0.0
2014-Apr-25 02:25N 51°55' E 003°32'0 0.0
2014-Apr-25 01:31N 51°55' E 003°32'0 0.0
2014-Apr-24 23:08N 51°55' E 003°32'0 0.0
2014-Apr-24 22:03N 51°55' E 003°32'0 0.0
2014-Apr-24 21:33N 51°55' E 003°32'0 0.0
2014-Apr-24 20:33N 51°55' E 003°32'0 0.0
2014-Apr-24 19:32N 51°55' E 003°32'0 0.0
2014-Apr-24 18:32N 51°55' E 003°32'0 0.0
2014-Apr-24 17:07N 51°55' E 003°32'0 0.0
2014-Apr-24 13:30N 51°55' E 003°32'0 0.0
2014-Apr-24 12:29N 51°55' E 003°33'0 0.0
2014-Apr-24 11:29N 51°55' E 003°32'0 0.0
2014-Apr-24 09:16N 51°55' E 003°33'0 0.0
2014-Apr-24 07:27N 51°55' E 003°32'0 0.0
2014-Apr-24 06:33N 51°55' E 003°32'0 0.0
2014-Apr-24 05:32N 51°55' E 003°32'0 0.0
2014-Apr-24 01:06N 51°55' E 003°32'0 0.0
2014-Apr-23 23:21N 51°55' E 003°32'0 0.0
2014-Apr-23 22:29N 51°55' E 003°33'0 0.0
2014-Apr-23 21:29N 51°55' E 003°32'0 0.0
2014-Apr-23 20:31N 51°55' E 003°32'0 0.0
2014-Apr-23 17:18N 51°55' E 003°32'0 0.0
2014-Apr-23 09:24N 51°55' E 003°33'0 0.0
2014-Apr-22 17:29N 51°55' E 003°32'0 0.0
2014-Apr-22 16:16N 51°55' E 003°32'0 0.0
2014-Apr-22 14:33N 51°55' E 003°32'0 0.0
2014-Apr-22 10:05N 51°55' E 003°33'0 0.0
2014-Apr-22 09:32N 51°55' E 003°33'4210.5
2014-Apr-22 05:31N 51°39' E 002°29'1414.6
2014-Apr-22 04:33N 51°29' E 002°14'1414.0
2014-Apr-22 03:33N 51°15' E 002°07'1313.4
2014-Apr-22 02:33N 51°08' E 001°49'5112.6
2014-Apr-21 22:28N 50°29' E 000°56'1212.7
2014-Apr-21 21:33N 50°26' E 000°38'1312.1
2014-Apr-21 20:29N 50°22' E 000°19'2811.9
2014-Apr-21 18:08N 50°13' W 000°22'1010.7
2014-Apr-21 17:12N 50°05' W 000°30'2313.1
2014-Apr-21 15:29N 49°42' W 000°30'1212.3
2014-Apr-21 14:32N 49°33' W 000°18'1212.1
2014-Apr-21 13:32N 49°28' W 000°01'1111.1
2014-Apr-21 12:33N 49°26' E 000°16'11 1.5
2014-Apr-21 05:12N 49°28' E 000°32'0 0.0
2014-Apr-21 03:26N 49°28' E 000°32'0 0.0
2014-Apr-20 00:15N 49°28' E 000°32'0 0.1
2014-Apr-19 23:33N 49°28' E 000°32'5 5.0
2014-Apr-19 22:33N 49°27' E 000°25'1414.6
2014-Apr-19 21:33N 49°27' E 000°02'7 7.2
2014-Apr-19 20:33N 49°29' W 000°08'0 0.0
2014-Apr-19 19:20N 49°29' W 000°08'0 0.0
2014-Apr-19 18:32N 49°29' W 000°08'0 0.0
2014-Apr-19 17:10N 49°29' W 000°08'0 0.0
2014-Apr-19 16:31N 49°29' W 000°08'0 0.0
2014-Apr-19 15:03N 49°29' W 000°08'2 3.2
2014-Apr-19 14:33N 49°29' W 000°11'1211.3
2014-Apr-19 13:31N 49°38' W 000°23'61 9.6
2014-Apr-19 07:10N 50°33' E 000°17'914.6
2014-Apr-19 06:34N 50°36' E 000°30'1414.1
2014-Apr-19 05:33N 50°44' E 000°49'1313.2
2014-Apr-19 04:33N 50°52' E 001°05'1711.5
2014-Apr-19 03:06N 51°03' E 001°25'710.3
2014-Apr-19 02:24N 51°07' E 001°34'910.6
2014-Apr-19 01:33N 51°13' E 001°45'1312.4
2014-Apr-19 00:33N 51°24' E 001°55'1414.3
2014-Apr-18 23:33N 51°35' E 002°09'7212.0
2014-Apr-18 17:31N 52°01' E 003°59'1010.2
2014-Apr-18 16:32N 51°56' E 004°12'5 4.6
2014-Apr-18 15:28N 51°53' E 004°18'0 0.0
2014-Apr-18 14:33N 51°53' E 004°18'0 0.0
2014-Apr-18 13:33N 51°53' E 004°18'0 0.0
2014-Apr-17 12:16N 51°53' E 004°18'0 0.5
2014-Apr-17 11:33N 51°53' E 004°18'7 7.1
2014-Apr-17 10:33N 51°57' E 004°10'1111.1
2014-Apr-17 09:33N 51°60' E 003°52'10 9.4
2014-Apr-17 08:32N 52°05' E 003°38'6 6.0
2014-Apr-17 07:32N 52°10' E 003°35'0 0.1
2014-Apr-17 06:29N 52°10' E 003°35'0 0.0
2014-Apr-17 05:28N 52°10' E 003°35'0 0.0
2014-Apr-17 04:25N 52°10' E 003°35'0 0.0
2014-Apr-17 03:30N 52°10' E 003°35'0 0.0
2014-Apr-17 02:24N 52°10' E 003°35'0 0.0
2014-Apr-17 01:30N 52°10' E 003°35'0 0.0
2014-Apr-17 00:32N 52°10' E 003°35'0 0.0
2014-Apr-16 23:26N 52°10' E 003°35'0 0.0
2014-Apr-16 22:31N 52°10' E 003°35'0 0.0
2014-Apr-16 21:31N 52°10' E 003°35'0 0.0
2014-Apr-16 20:33N 52°10' E 003°35'0 0.0
2014-Apr-16 19:18N 52°10' E 003°35'1 1.3
2014-Apr-16 18:33N 52°10' E 003°36'7 7.0
2014-Apr-16 17:33N 52°13' E 003°46'1212.4
2014-Apr-16 16:33N 52°25' E 003°49'10 9.9
2014-Apr-16 15:34N 52°31' E 004°02'7 7.3
2014-Apr-16 14:32N 52°31' E 004°15'0 0.1
2014-Apr-16 13:32N 52°31' E 004°15'0 0.0
2014-Apr-16 12:32N 52°31' E 004°15'0 0.0
2014-Apr-16 11:31N 52°31' E 004°15'0 0.0
2014-Apr-16 10:31N 52°31' E 004°15'0 0.0
2014-Apr-16 09:33N 52°31' E 004°15'0 0.0
2014-Apr-16 08:33N 52°31' E 004°15'0 0.0
2014-Apr-16 07:32N 52°31' E 004°15'0 0.0
2014-Apr-16 06:29N 52°31' E 004°15'0 0.0
2014-Apr-16 05:32N 52°31' E 004°15'0 0.0
2014-Apr-16 04:28N 52°31' E 004°15'0 0.0
2014-Apr-16 03:28N 52°31' E 004°15'0 0.0
2014-Apr-16 02:33N 52°31' E 004°15'0 0.0
2014-Apr-16 01:33N 52°31' E 004°15'0 0.0
2014-Apr-16 00:32N 52°31' E 004°15'0 0.0
2014-Apr-15 23:26N 52°31' E 004°15'0 0.0
2014-Apr-15 22:19N 52°31' E 004°15'0 0.0
2014-Apr-15 21:13N 52°31' E 004°15'0 0.0
2014-Apr-15 20:31N 52°31' E 004°15'0 0.0
2014-Apr-15 19:33N 52°31' E 004°15'0 0.0
2014-Apr-15 18:33N 52°31' E 004°15'0 0.0
2014-Apr-15 17:32N 52°31' E 004°15'0 0.1
2014-Apr-15 16:32N 52°31' E 004°15'0 0.0
2014-Apr-15 15:31N 52°31' E 004°15'0 0.0
2014-Apr-15 14:28N 52°31' E 004°15'0 0.0
2014-Apr-15 12:31N 52°31' E 004°15'0 0.0
2014-Apr-15 11:34N 52°31' E 004°15'0 0.0
2014-Apr-15 10:33N 52°31' E 004°15'0 0.0
2014-Apr-15 09:33N 52°31' E 004°15'0 0.0
2014-Apr-15 08:32N 52°31' E 004°15'0 0.0
2014-Apr-15 07:32N 52°31' E 004°15'0 0.0
2014-Apr-15 06:34N 52°31' E 004°15'0 0.0
2014-Apr-15 05:34N 52°31' E 004°15'  

Dump ship's entire track history

sailing weather and tide predictions

Wolgastern — CQLH — position and weather